• In Germany
  • List of Countries
  • For 7 days
  • Water Temperature
  • Satellite Maps
  • Weather Map
  • Weather Widgets
  • user-avatar
    Login

    Hourly Weather Kalgoorlie

    Today, 23 April, Sunday

    Time Temperature Precipitation Wind Pressure Humidity
    00:00 +19°C° 0 mm 4 mps 732 mmHg 60%
    01:00 +19°C° 0 mm 4 mps 732 mmHg 61%
    02:00 +19°C° 0 mm 4 mps 733 mmHg 62%
    03:00 +18°C° 0 mm 4 mps 732 mmHg 62%
    04:00 +18°C° 0 mm 3 mps 732 mmHg 61%
    05:00 +17°C° 0 mm 3 mps 732 mmHg 61%
    06:00 +18°C° 0 mm 4 mps 733 mmHg 58%
    07:00 +18°C° 0 mm 4 mps 733 mmHg 55%
    08:00 +19°C° 0 mm 5 mps 734 mmHg 53%
    09:00 +20°C° 0 mm 5 mps 734 mmHg 48%
    10:00 +22°C° 0 mm 5 mps 734 mmHg 44%
    11:00 +23°C° 0 mm 5 mps 734 mmHg 39%
    12:00 +25°C° 0 mm 5 mps 733 mmHg 39%
    13:00 +25°C° 0 mm 5 mps 733 mmHg 39%
    14:00 +25°C° 0 mm 5 mps 733 mmHg 40%
    15:00 +23°C° 0.1 mm 5 mps 733 mmHg 44%
    16:00 +22°C° 0.1 mm 4 mps 733 mmHg 48%
    17:00 +21°C° 0.1 mm 4 mps 733 mmHg 52%
    18:00 +21°C° 0 mm 4 mps 733 mmHg 55%
    19:00 +20°C° 0 mm 4 mps 733 mmHg 58%
    20:00 +20°C° 0 mm 5 mps 733 mmHg 60%
    21:00 +19°C° 0 mm 5 mps 733 mmHg 60%
    22:00 +17°C° 0 mm 5 mps 733 mmHg 60%
    23:00 +17°C° 0 mm 5 mps 733 mmHg 60%

    Tomorrow, 24 April, Monday

    Time Temperature Precipitation Wind Pressure Humidity
    00:00 +16°C° 0 mm 5 mps 733 mmHg 64%
    01:00 +15°C° 0 mm 5 mps 733 mmHg 68%
    02:00 +15°C° 0 mm 5 mps 733 mmHg 72%
    03:00 +14°C° 0 mm 4 mps 733 mmHg 75%
    04:00 +14°C° 0 mm 4 mps 733 mmHg 79%
    05:00 +13°C° 0 mm 4 mps 733 mmHg 83%
    06:00 +14°C° 0 mm 4 mps 733 mmHg 82%
    07:00 +14°C° 0 mm 4 mps 733 mmHg 80%
    08:00 +15°C° 0 mm 4 mps 733 mmHg 79%
    09:00 +17°C° 0 mm 4 mps 733 mmHg 69%
    10:00 +19°C° 0 mm 4 mps 733 mmHg 60%
    11:00 +21°C° 0 mm 4 mps 733 mmHg 51%
    12:00 +22°C° 0 mm 4 mps 732 mmHg 46%
    13:00 +24°C° 0 mm 3 mps 732 mmHg 41%
    14:00 +24°C° 0 mm 3 mps 731 mmHg 36%
    15:00 +24°C° 0 mm 3 mps 731 mmHg 37%
    16:00 +22°C° 0 mm 3 mps 731 mmHg 38%
    17:00 +22°C° 0 mm 3 mps 731 mmHg 39%
    18:00 +21°C° 0 mm 3 mps 732 mmHg 43%
    19:00 +20°C° 0 mm 3 mps 732 mmHg 47%
    20:00 +18°C° 0 mm 3 mps 732 mmHg 50%
    21:00 +18°C° 0 mm 3 mps 732 mmHg 55%
    22:00 +17°C° 0 mm 3 mps 733 mmHg 59%
    23:00 +17°C° 0 mm 3 mps 733 mmHg 63%

    Day after tomorrow, 25 April, Tuesday

    Time Temperature Precipitation Wind Pressure Humidity
    00:00 +16°C° 0 mm 3 mps 733 mmHg 66%
    01:00 +16°C° 0 mm 3 mps 733 mmHg 69%
    02:00 +15°C° 0 mm 2 mps 733 mmHg 72%
    03:00 +15°C° 0 mm 2 mps 733 mmHg 73%
    04:00 +15°C° 0 mm 2 mps 733 mmHg 75%
    05:00 +14°C° 0 mm 2 mps 733 mmHg 76%
    06:00 +14°C° 0 mm 3 mps 734 mmHg 73%
    07:00 +14°C° 0 mm 3 mps 734 mmHg 70%
    08:00 +16°C° 0 mm 3 mps 735 mmHg 68%
    09:00 +18°C° 0 mm 3 mps 735 mmHg 61%
    10:00 +19°C° 0 mm 3 mps 735 mmHg 54%
    11:00 +21°C° 0 mm 2 mps 735 mmHg 47%
    12:00 +22°C° 0 mm 3 mps 735 mmHg 43%
    13:00 +22°C° 0 mm 4 mps 734 mmHg 39%
    14:00 +23°C° 0 mm 4 mps 734 mmHg 36%
    15:00 +22°C° 0 mm 4 mps 734 mmHg 38%
    16:00 +21°C° 0 mm 4 mps 734 mmHg 40%
    17:00 +21°C° 0 mm 4 mps 734 mmHg 42%
    18:00 +20°C° 0 mm 4 mps 735 mmHg 46%
    19:00 +17°C° 0 mm 5 mps 735 mmHg 51%
    20:00 +16°C° 0 mm 5 mps 736 mmHg 55%
    21:00 +16°C° 0 mm 5 mps 736 mmHg 58%
    22:00 +15°C° 0 mm 4 mps 736 mmHg 60%
    23:00 +14°C° 0 mm 4 mps 736 mmHg 62%

    26 April, Wednesday

    Time Temperature Precipitation Wind Pressure Humidity
    00:00 +14°C° 0 mm 4 mps 736 mmHg 64%
    01:00 +13°C° 0 mm 4 mps 736 mmHg 66%
    02:00 +13°C° 0 mm 3 mps 736 mmHg 68%
    03:00 +12°C° 0 mm 3 mps 736 mmHg 71%
    04:00 +12°C° 0 mm 3 mps 736 mmHg 74%
    05:00 +12°C° 0 mm 3 mps 736 mmHg 77%
    06:00 +12°C° 0 mm 3 mps 737 mmHg 76%
    07:00 +13°C° 0 mm 3 mps 737 mmHg 74%
    08:00 +13°C° 0 mm 4 mps 738 mmHg 73%
    09:00 +16°C° 0 mm 3 mps 738 mmHg 66%
    10:00 +18°C° 0 mm 3 mps 738 mmHg 58%
    11:00 +19°C° 0 mm 3 mps 738 mmHg 51%
    12:00 +20°C° 0 mm 3 mps 737 mmHg 46%
    13:00 +21°C° 0 mm 3 mps 737 mmHg 42%
    14:00 +21°C° 0 mm 3 mps 736 mmHg 37%
    15:00 +21°C° 0 mm 3 mps 736 mmHg 39%
    16:00 +20°C° 0 mm 3 mps 736 mmHg 40%
    17:00 +20°C° 0 mm 3 mps 736 mmHg 41%
    18:00 +19°C° 0 mm 3 mps 737 mmHg 46%
    19:00 +18°C° 0 mm 3 mps 737 mmHg 50%
    20:00 +15°C° 0 mm 4 mps 737 mmHg 55%
    21:00 +16°C° 0 mm 3 mps 738 mmHg 59%
    22:00 +14°C° 0 mm 3 mps 738 mmHg 62%
    23:00 +14°C° 0 mm 3 mps 738 mmHg 65%

    27 April, Thursday

    Time Temperature Precipitation Wind Pressure Humidity
    00:00 +13°C° 0 mm 3 mps 738 mmHg 66%
    01:00 +13°C° 0 mm 3 mps 738 mmHg 67%
    02:00 +12°C° 0 mm 3 mps 738 mmHg 68%
    03:00 +12°C° 0 mm 3 mps 738 mmHg 70%
    04:00 +11°C° 0 mm 3 mps 738 mmHg 73%
    05:00 +11°C° 0 mm 3 mps 738 mmHg 75%
    06:00 +11°C° 0 mm 3 mps 738 mmHg 75%
    07:00 +12°C° 0 mm 4 mps 739 mmHg 74%
    08:00 +13°C° 0 mm 4 mps 739 mmHg 74%
    09:00 +14°C° 0 mm 4 mps 739 mmHg 65%
    10:00 +17°C° 0 mm 4 mps 739 mmHg 57%
    11:00 +19°C° 0 mm 4 mps 739 mmHg 48%
    12:00 +19°C° 0 mm 4 mps 738 mmHg 44%
    13:00 +20°C° 0 mm 4 mps 737 mmHg 40%
    14:00 +21°C° 0 mm 4 mps 736 mmHg 35%
    15:00 +20°C° 0 mm 4 mps 737 mmHg 37%
    16:00 +20°C° 0 mm 4 mps 737 mmHg 38%
    17:00 +19°C° 0 mm 3 mps 737 mmHg 39%
    18:00 +18°C° 0 mm 4 mps 737 mmHg 42%
    19:00 +17°C° 0 mm 4 mps 737 mmHg 45%
    20:00 +15°C° 0 mm 4 mps 738 mmHg 48%
    21:00 +14°C° 0 mm 4 mps 738 mmHg 51%
    22:00 +14°C° 0 mm 4 mps 738 mmHg 53%
    23:00 +13°C° 0 mm 4 mps 738 mmHg 56%

    28 April, Friday

    Time Temperature Precipitation Wind Pressure Humidity
    00:00 +12°C° 0 mm 4 mps 738 mmHg 61%
    01:00 +12°C° 0 mm 3 mps 738 mmHg 66%
    02:00 +12°C° 0 mm 3 mps 738 mmHg 70%
    03:00 +11°C° 0 mm 3 mps 738 mmHg 72%
    04:00 +11°C° 0 mm 3 mps 738 mmHg 74%
    05:00 +10°C° 0 mm 3 mps 738 mmHg 76%
    06:00 +11°C° 0 mm 3 mps 738 mmHg 73%
    07:00 +12°C° 0 mm 4 mps 739 mmHg 69%
    08:00 +13°C° 0 mm 4 mps 739 mmHg 66%
    09:00 +14°C° 0 mm 4 mps 739 mmHg 58%
    10:00 +16°C° 0 mm 5 mps 739 mmHg 51%
    11:00 +19°C° 0 mm 5 mps 739 mmHg 43%
    12:00 +19°C° 0 mm 5 mps 738 mmHg 40%
    13:00 +20°C° 0 mm 5 mps 738 mmHg 36%
    14:00 +21°C° 0 mm 5 mps 737 mmHg 33%
    15:00 +20°C° 0 mm 5 mps 737 mmHg 35%
    16:00 +19°C° 0 mm 4 mps 737 mmHg 37%
    17:00 +19°C° 0 mm 4 mps 737 mmHg 39%
    18:00 +18°C° 0 mm 4 mps 738 mmHg 43%
    19:00 +17°C° 0 mm 4 mps 738 mmHg 47%
    20:00 +15°C° 0 mm 4 mps 738 mmHg 50%
    21:00 +14°C° 0 mm 4 mps 738 mmHg 53%
    22:00 +13°C° 0 mm 4 mps 738 mmHg 55%
    23:00 +13°C° 0 mm 4 mps 738 mmHg 57%
    Show more